{"data":{"norad_id":57031,"intl_designator":"2023-085AD","name":"2023-085AD","alt_names":[],"object_type":"PAYLOAD","status":"ACTIVE","operator":null,"country":"PRC","launch_date":"2023-06-15","launch_site_code":"TAISC","launch_vehicle":null,"mission":null,"orbit_class":"UNKNOWN","rcs_meters":null,"size_class":null,"mass_kg":null,"dimensions":null,"purposes":[],"wikipedia_slug":null,"has_3d_model":false,"image_url":null,"decayed_at":null,"tle_current":{"epoch":"2026-05-25T04:57:26.836704Z","epoch_age_seconds":57536,"freshness":"FRESH","line1":"1 57031U 23085AD  26145.20656061  .00015381  00000+0  46782-3 0  9995","line2":"2 57031  97.4924 257.4828 0009618 154.4070 205.7650 15.34078013163258","mean_motion":15.34078013,"eccentricity":0.0009618,"inclination_deg":97.4924,"raan_deg":257.4828,"arg_perigee_deg":154.407,"mean_anomaly_deg":205.765,"bstar":0.00046782,"rev_number":16325,"period_min":93.867455748484,"perigee_km":457.07998005281,"apogee_km":470.24086157148,"semimajor_km":6841.7974208121,"source":"CELESTRAK","updated_at":"2026-05-25T13:37:59.794869Z"}}}